OH2FDL-2 Weather Reports


Display with metric or nautical units.
time (UTC)temp
F
wind
direction
speed
MPH
gust
MPH
rain 1hr
in
rain 24hr
in
rain mn
in
humidity
%
barometer
mb
20260504050017 48 0.0 0.0 0.00 0.00 0.00 85 1001.1
20260504044518 47 0.0 0.0 0.00 0.00 0.00 87 1001.2
20260504043018 46 0.0 0.0 0.00 0.00 0.00 88 1001.3
20260504040018 44 0.0 0.0 0.00 0.00 0.00 91 1001.6
20260504034517 43 0.0 0.0 0.00 0.00 0.00 91 1001.7
20260504033018 43 0.0 0.0 0.00 0.00 0.00 89 1001.7
20260504031518 43 0.0 0.0 0.00 0.00 0.00 87 1001.8
20260504030018 43 0.0 0.0 0.00 0.00 0.00 85 1001.7
20260504024518 44 0.0 0.0 0.00 0.00 0.00 83 1001.7
20260504023018 44 0.0 0.0 0.00 0.00 0.00 81 1002.0
20260504021518 45 0.0 0.0 0.00 0.00 0.00 79 1002.1
20260504020018 47 0.0 0.0 0.00 0.00 0.00 78 1002.1
20260504013017 48 0.0 0.0 0.00 0.00 0.00 79 1002.5
20260504011518 48 0.0 0.0 0.00 0.00 0.00 80 1002.5
20260504010017 48 0.0 0.0 0.00 0.00 0.00 81 1002.5
20260504004517 49 0.0 0.0 0.00 0.00 0.00 82 1002.4
20260504003018 50 0.0 0.0 0.00 0.00 0.00 84 1002.6
20260504001517 50 0.0 0.0 0.00 0.00 0.00 84 1002.7
20260504000018 50 0.0 0.0 0.00 0.00 0.00 85 1002.7
20260503234517 51 0.0 0.0 0.00 0.00 0.00 86 1002.7
20260503233018 51 0.0 0.0 0.00 0.00 0.00 88 1002.8
20260503231517 51 0.0 0.0 0.00 0.00 0.00 91 1002.9
20260503230017 51 0.0 0.0 0.00 0.00 0.00 94 1002.9
20260503224517 52 0.0 0.0 0.00 0.00 0.00 97 1003.0
20260503223018 52 0.0 0.0 0.00 0.00 0.00 99 1003.0
20260503221518 52 0.0 0.0 0.00 0.00 0.00 10 1003.0
20260503220017 52 0.0 0.0 0.00 0.00 0.00 10 1003.1
20260503214517 52 0.0 0.0 0.00 0.00 0.00 10 1003.1
20260503213019 52 0.0 0.0 0.00 0.00 0.00 10 1003.2
20260503211518 52 0.0 0.0 0.00 0.00 0.00 10 1003.1
20260503210017 52 0.0 0.0 0.00 0.00 0.00 10 1003.1
20260503204518 52 0.0 0.0 0.00 0.00 0.00 10 1003.1
20260503203018 53 0.0 0.0 0.00 0.00 0.00 10 1003.2
20260503201518 53 0.0 0.0 0.00 0.00 0.00 10 1003.2
20260503200018 53 0.0 0.0 0.00 0.00 0.00 99 1003.3
20260503194518 53 0.0 0.0 0.00 0.00 0.00 98 1003.3
20260503193017 54 0.0 0.0 0.00 0.00 0.00 96 1003.4
20260503191518 54 0.0 0.0 0.00 0.00 0.00 94 1003.4
20260503190023 54 0.0 0.0 0.00 0.00 0.00 93 1003.4
20260503184518 55 0.0 0.0 0.00 0.00 0.00 91 1003.5
20260503183017 55 0.0 0.0 0.00 0.00 0.00 89 1003.3
20260503181518 56 0.0 0.0 0.00 0.00 0.00 87 1003.3
20260503180018 56 0.0 0.0 0.00 0.00 0.00 85 1003.2
20260503174524 57 0.0 0.0 0.00 0.00 0.00 83 1003.1
20260503173018 58 0.0 0.0 0.00 0.00 0.00 80 1003.1
20260503171519 59 0.0 0.0 0.00 0.00 0.00 77 1003.1
20260503081518 56 0.0 0.0 0.00 0.00 0.00 10 1003.4